Home   Weather   Liezen   Past weeks

Flag for Austria Past Weather in Liezen, Styria, Austria — Yesterday and Last 2 Weeks

Now
36 °F

Passing clouds.


Feels Like: N/A
Forecast: 29 / 49 °F
Wind: N/A

Location: Aigen Im Ennstal

Current Time: Dec 9, 2016 at 4:40:44 pm

Latest Report: Dec 9, 2016 at 4:00 pm


Visibility: 31 mi

Pressure: 30.52 "Hg (28.11 "Hg at 661m altitude)

Humidity: 60%

Dew Point: 23 °F

Location of LiezenLocation

Past Weather in Liezen — Graph

°F

Liezen Temperature Yesterday

Maximum temperature yesterday: 40 °F (at 3:00 pm)
Minimum temperature yesterday: 17 °F (at 5:00 am)
Average temperature yesterday: 26 °F

High & Low Weather Summary for the Past Weeks

 TemperatureHumidityPressure
High49 °F (Nov 26, 2:00 pm)99% (Nov 25, 1:00 am)30.81 "Hg (Nov 25, 1:00 am)
Low15 °F (Nov 30, 7:00 am)28% (Dec 1, 9:00 pm)29.94 "Hg (Nov 27, 2:00 pm)
Average32 °F76%30.37 "Hg
* Reported Nov 24 3:00 pm — Dec 9 3:00 pm, Liezen, Weather by CustomWeather, © 2016

Note: Actual official high and low records may vary slightly from our data, if they occured in-between our weather recording intervals... More about our weather records

Advertising

Liezen Weather History for the Previous 24 Hours

Scroll right to see more
 ConditionsComfort  
Time TempWeatherWind HumidityBarometerVisibility
3:00 pm
Fri, Dec 9
38 °FChilly.1 mph58%30.50 "HgN/A
2:00 pm39 °FChilly.2 mph56%30.50 "HgN/A
1:00 pm38 °FPartly sunny.N/A59%30.52 "Hg31 mi
12:00 pm34 °FChilly.1 mph68%30.56 "HgN/A
11:00 am28 °FChilly.1 mph76%30.61 "HgN/A
10:00 am22 °FPassing clouds.2 mph85%30.64 "Hg31 mi
9:00 am19 °FCold.No wind87%30.66 "HgN/A
8:00 am20 °FCold.No wind85%30.66 "HgN/A
7:00 am23 °FClear.2 mph84%30.63 "Hg25 mi
6:00 am24 °FCold.2 mph87%30.64 "HgN/A
5:00 am21 °FCold.No wind87%30.65 "HgN/A
4:00 am22 °FPassing clouds.N/A89%30.63 "Hg16 mi
3:00 am24 °FCold.1 mph85%30.64 "HgN/A
2:00 am26 °FChilly.1 mph85%30.63 "HgN/A
1:00 am25 °FPassing clouds.N/A86%30.65 "Hg16 mi
12:00 am24 °FCold.No wind83%30.68 "HgN/A
11:00 pm
Thu, Dec 8
24 °FCold.1 mph84%30.68 "HgN/A
10:00 pm25 °FPassing clouds.No wind83%30.68 "Hg16 mi
9:00 pm24 °FCold.No wind84%30.69 "HgN/A
8:00 pm28 °FChilly.1 mph80%30.67 "HgN/A
7:00 pm28 °FPassing clouds.1 mph77%30.66 "Hg16 mi
6:00 pm28 °FChilly.No wind76%30.65 "HgN/A
5:00 pm29 °FChilly.No wind77%30.64 "HgN/A
4:00 pm36 °FOvercast.2 mph60%30.60 "Hg31 mi
Weather by CustomWeather, © 2016

See weather overviewHow to use our weather pages